This is the latest recevied weather packets stored in our database for station/object KD7JB. If no packets are shown the sender has not sent any weather packets the latest 10 day(s).
| Time | Temp. | Humidity | Pressure | Rain* | Wind** | Luminosity | Snow |
|---|---|---|---|---|---|---|---|
| 1777999045 | 15.56° C | 50% | 1175.4 hPa | 0 mm | - | 510 W/m² | - |
| 1777998744 | 15.56° C | 49% | 1175.3 hPa | 0 mm | - | 498 W/m² | - |
| 1777998441 | 15.56° C | 51% | 1175.4 hPa | 0 mm | - | 485 W/m² | - |
| 1777998138 | 15.56° C | 49% | 1175.4 hPa | 0 mm | - | 471 W/m² | - |
| 1777997834 | 16.11° C | 49% | 1175.4 hPa | 0 mm | - | 459 W/m² | - |
| 1777997532 | 15.56° C | 47% | 1175.4 hPa | 0 mm | - | 446 W/m² | - |
| 1777997229 | 15.56° C | 47% | 1175.4 hPa | 0 mm | - | 433 W/m² | - |
| 1777996927 | 15.56° C | 46% | 1175.2 hPa | 0 mm | - | 422 W/m² | - |
| 1777996623 | 15.56° C | 46% | 1175.4 hPa | 0 mm | - | 408 W/m² | - |
| 1777996319 | 15.56° C | 46% | 1175.5 hPa | 0 mm | - | 396 W/m² | - |
| 1777996016 | 15° C | 47% | 1175.3 hPa | 0 mm | - | 382 W/m² | - |
| 1777995712 | 16.11° C | 45% | 1175.4 hPa | 0 mm | - | 367 W/m² | - |
| 1777995409 | 16.11° C | 48% | 1175.3 hPa | 0 mm | - | 357 W/m² | - |
| 1777995106 | 15.56° C | 49% | 1175.4 hPa | 0 mm | - | 343 W/m² | - |
| 1777994803 | 15.56° C | 48% | 1175.2 hPa | 0 mm | - | 304 W/m² | - |
| 1777994498 | 15.56° C | 49% | 1175.3 hPa | 0 mm | - | 313 W/m² | - |
| 1777994194 | 15.56° C | 47% | 1175.3 hPa | 0 mm | - | 300 W/m² | - |
| 1777993892 | 15.56° C | 48% | 1175.3 hPa | 0 mm | - | 282 W/m² | - |
| 1777993587 | 15.56° C | 49% | 1175.1 hPa | 0 mm | - | 268 W/m² | - |
| 1777993285 | 15.56° C | 49% | 1175.3 hPa | 0 mm | - | 254 W/m² | - |
| 1777992980 | 15° C | 50% | 1175.1 hPa | 0 mm | - | 238 W/m² | - |
| 1777992679 | 14.44° C | 50% | 1174.8 hPa | 0 mm | - | 224 W/m² | - |
| 1777992376 | 14.44° C | 49% | 1174.9 hPa | 0 mm | - | 210 W/m² | - |
| 1777992074 | 15° C | 51% | 1175.1 hPa | 0 mm | - | 194 W/m² | - |
| 1777991771 | 14.44° C | 51% | 1175.1 hPa | 0 mm | - | 179 W/m² | - |
* Rain latest hour (hover to see other rain measurements)
** Current wind speed in m/s (hover to see current wind gust speed)